N100CX UACC-ZF9Q

Flight info

Callsign N100CX
Flight time N/A
Altitude 7000
Route 5109N07113E/URKER DIDAL ATBAN ATNON LATKO DOKUT 5259N06410E/TANGO
Aircraft C414/L-S/N

Departure

Time 2026-04-25 14:16
Airport Nursultan Nazarbayev International Airport (UACC)

Arrival

Time N/A
Airport ZF9Q
Time Latitude Longitude Altitude Speed Heading
2026-04-25 14:05 51.02290 71.45577 1164 ft 0 kts 225°
2026-04-25 14:13 51.02279 71.45560 1187 ft 9 kts 217°
2026-04-25 14:13 51.02223 71.45620 1163 ft 14 kts 134°
2026-04-25 14:14 51.02152 71.45712 1164 ft 12 kts 207°
2026-04-25 14:14 51.02075 71.45592 1164 ft 22 kts 224°
2026-04-25 14:14 51.01992 71.45654 1163 ft 17 kts 139°
2026-04-25 14:14 51.01891 71.45582 1164 ft 22 kts 222°
2026-04-25 14:15 51.01774 71.45526 1164 ft 20 kts 133°
2026-04-25 14:15 51.01712 71.45629 1163 ft 16 kts 130°
2026-04-25 14:15 51.01641 71.45660 1162 ft 0 kts 225°
2026-04-25 14:15 51.01570 71.45547 1162 ft 39 kts 225°
2026-04-25 14:16 51.01276 71.45090 1177 ft 75 kts 225°
2026-04-25 14:16 51.00879 71.44466 1335 ft 85 kts 226°
2026-04-25 14:16 51.00456 71.43745 1551 ft 93 kts 227°
2026-04-25 14:16 50.99998 71.42951 1770 ft 105 kts 223°
2026-04-25 14:17 50.99470 71.42076 2060 ft 111 kts 226°
2026-04-25 14:17 50.99027 71.40978 2206 ft 130 kts 253°
2026-04-25 14:17 50.99330 71.39628 2452 ft 150 kts 308°
2026-04-25 14:17 50.99835 71.39159 2588 ft 157 kts 332°
2026-04-25 14:18 51.00780 71.38395 2841 ft 149 kts 314°
2026-04-25 14:18 51.01588 71.37450 3085 ft 150 kts 314°
2026-04-25 14:18 51.02429 71.36473 3344 ft 151 kts 313°
2026-04-25 14:18 51.03276 71.35491 3595 ft 151 kts 312°
2026-04-25 14:19 51.04122 71.34500 3844 ft 153 kts 311°
2026-04-25 14:19 51.04987 71.33478 4096 ft 157 kts 312°
2026-04-25 14:19 51.05875 71.32434 4350 ft 160 kts 312°
2026-04-25 14:19 51.06776 71.31375 4609 ft 163 kts 312°
2026-04-25 14:20 51.07691 71.30294 4864 ft 166 kts 311°
2026-04-25 14:20 51.08311 71.29564 5023 ft 167 kts 311°
2026-04-25 14:20 51.09563 71.28086 5355 ft 169 kts 311°
2026-04-25 14:20 51.10510 71.26969 5604 ft 170 kts 311°
2026-04-25 14:21 51.11457 71.25844 5855 ft 171 kts 311°
2026-04-25 14:21 51.12418 71.24719 6063 ft 172 kts 311°
2026-04-25 14:21 51.13381 71.23585 6323 ft 173 kts 311°
2026-04-25 14:21 51.14344 71.22435 6565 ft 173 kts 311°
2026-04-25 14:22 51.15126 71.21105 6798 ft 158 kts 286°
2026-04-25 14:22 51.15557 71.19519 6942 ft 161 kts 280°
2026-04-25 14:22 51.16010 71.17813 6953 ft 174 kts 282°
2026-04-25 14:22 51.16494 71.15998 6956 ft 182 kts 282°
2026-04-25 14:23 51.16995 71.14120 6954 ft 187 kts 281°
2026-04-25 14:23 51.17502 71.12210 6956 ft 187 kts 281°
2026-04-25 14:23 51.18005 71.10308 6957 ft 187 kts 281°
2026-04-25 14:23 51.18508 71.08401 6954 ft 187 kts 281°
2026-04-25 14:24 51.19012 71.06488 6956 ft 188 kts 281°
2026-04-25 14:24 51.19516 71.04576 6956 ft 188 kts 281°
2026-04-25 14:24 51.20020 71.02659 6948 ft 188 kts 281°
2026-04-25 14:24 51.20524 71.00742 6948 ft 188 kts 281°
2026-04-25 14:25 51.21028 70.98823 6940 ft 189 kts 281°
2026-04-25 14:25 51.21532 70.96903 6939 ft 188 kts 281°
2026-04-25 14:25 51.22034 70.94990 6940 ft 187 kts 281°
2026-04-25 14:25 51.22367 70.93716 6939 ft 187 kts 281°
2026-04-25 14:26 51.23034 70.91169 6940 ft 187 kts 281°
2026-04-25 14:26 51.23533 70.89262 6939 ft 187 kts 281°
2026-04-25 14:26 51.24031 70.87355 6939 ft 187 kts 281°
2026-04-25 14:26 51.24530 70.85444 6938 ft 187 kts 281°
2026-04-25 14:27 51.25030 70.83529 6940 ft 187 kts 281°
2026-04-25 14:27 51.25528 70.81619 6940 ft 187 kts 281°
2026-04-25 14:27 51.26024 70.79715 6939 ft 187 kts 281°
2026-04-25 14:27 51.26523 70.77795 6925 ft 187 kts 281°
2026-04-25 14:28 51.27022 70.75879 6920 ft 187 kts 281°
2026-04-25 14:28 51.27520 70.73966 6921 ft 187 kts 281°
2026-04-25 14:28 51.28015 70.72054 6921 ft 187 kts 281°
2026-04-25 14:28 51.28512 70.70139 6921 ft 187 kts 281°
2026-04-25 14:29 51.29003 70.68244 6924 ft 187 kts 281°
2026-04-25 14:29 51.29498 70.66332 6924 ft 187 kts 281°
2026-04-25 14:29 51.29994 70.64415 6924 ft 187 kts 281°
2026-04-25 14:29 51.30489 70.62498 6924 ft 187 kts 281°
2026-04-25 14:30 51.30984 70.60582 6927 ft 187 kts 281°
2026-04-25 14:30 51.31972 70.56753 6927 ft 187 kts 281°
2026-04-25 14:30 51.32467 70.54832 6927 ft 187 kts 281°
2026-04-25 14:31 51.32962 70.52906 6913 ft 188 kts 281°
2026-04-25 14:31 51.33461 70.50968 6910 ft 189 kts 281°
2026-04-25 14:31 51.33961 70.49022 6911 ft 190 kts 281°
2026-04-25 14:31 51.34461 70.47075 6912 ft 190 kts 281°
2026-04-25 14:32 51.34960 70.45130 6911 ft 189 kts 281°
2026-04-25 14:32 51.35458 70.43189 6912 ft 189 kts 281°
2026-04-25 14:32 51.35956 70.41238 6911 ft 191 kts 282°
2026-04-25 14:32 51.36457 70.39282 6913 ft 191 kts 282°
2026-04-25 14:33 51.36958 70.37327 6915 ft 190 kts 282°
2026-04-25 14:33 51.37458 70.35368 6912 ft 190 kts 282°
2026-04-25 14:33 51.37957 70.33410 6915 ft 191 kts 282°
2026-04-25 14:33 51.38458 70.31445 6916 ft 191 kts 282°
2026-04-25 14:34 51.38958 70.29484 6907 ft 191 kts 282°
2026-04-25 14:34 51.39459 70.27517 6905 ft 191 kts 282°
2026-04-25 14:34 51.39959 70.25550 6909 ft 191 kts 282°
2026-04-25 14:34 51.40457 70.23589 6909 ft 191 kts 282°
2026-04-25 14:35 51.40956 70.21623 6905 ft 191 kts 282°
2026-04-25 14:35 51.41454 70.19659 6909 ft 191 kts 282°
2026-04-25 14:35 51.41953 70.17689 6910 ft 191 kts 282°
2026-04-25 14:35 51.42452 70.15720 6904 ft 191 kts 282°
2026-04-25 14:36 51.42952 70.13745 6905 ft 191 kts 282°
2026-04-25 14:36 51.43449 70.11779 6903 ft 191 kts 282°
2026-04-25 14:36 51.43946 70.09808 6905 ft 191 kts 282°
2026-04-25 14:36 51.44443 70.07839 6903 ft 191 kts 282°
2026-04-25 14:37 51.44940 70.05868 6900 ft 191 kts 282°
2026-04-25 14:37 51.45435 70.03900 6898 ft 190 kts 282°
2026-04-25 14:37 51.45929 70.01941 6890 ft 190 kts 282°
2026-04-25 14:37 51.46401 70.00063 6887 ft 190 kts 282°
2026-04-25 14:38 51.46893 69.98106 6891 ft 190 kts 282°
2026-04-25 14:38 51.47383 69.96151 6890 ft 189 kts 282°
2026-04-25 14:38 51.47873 69.94193 6893 ft 189 kts 282°
2026-04-25 14:38 51.48364 69.92235 6893 ft 189 kts 281°
2026-04-25 14:39 51.48928 69.90311 6892 ft 193 kts 287°
2026-04-25 14:39 51.49553 69.88412 6887 ft 193 kts 287°
2026-04-25 14:39 51.50169 69.86506 6888 ft 193 kts 287°
2026-04-25 14:39 51.50785 69.84595 6880 ft 194 kts 288°
2026-04-25 14:40 51.51405 69.82681 6880 ft 193 kts 288°
2026-04-25 14:40 51.52021 69.80774 6884 ft 193 kts 288°
2026-04-25 14:40 51.52640 69.78860 6885 ft 194 kts 288°
2026-04-25 14:40 51.53259 69.76940 6878 ft 194 kts 288°
2026-04-25 14:41 51.53879 69.75023 6878 ft 194 kts 288°
2026-04-25 14:41 51.54499 69.73099 6882 ft 194 kts 288°
2026-04-25 14:41 51.55118 69.71175 6880 ft 194 kts 288°
2026-04-25 14:41 51.55738 69.69251 6879 ft 194 kts 288°
2026-04-25 14:42 51.56357 69.67329 6879 ft 194 kts 288°
2026-04-25 14:42 51.56768 69.66048 6880 ft 194 kts 288°
2026-04-25 14:42 51.57592 69.63482 6875 ft 194 kts 288°
2026-04-25 14:42 51.58210 69.61556 6875 ft 194 kts 288°
2026-04-25 14:43 51.58827 69.59631 6876 ft 194 kts 288°
2026-04-25 14:43 51.59445 69.57703 6870 ft 195 kts 288°
2026-04-25 14:43 51.60063 69.55770 6870 ft 195 kts 288°
2026-04-25 14:43 51.60681 69.53841 6870 ft 194 kts 287°
2026-04-25 14:44 51.61298 69.51910 6869 ft 194 kts 287°
2026-04-25 14:44 51.61915 69.49981 6858 ft 195 kts 288°
2026-04-25 14:44 51.62531 69.48049 6858 ft 194 kts 288°
2026-04-25 14:44 51.63147 69.46118 6862 ft 194 kts 288°
2026-04-25 14:45 51.63760 69.44196 6851 ft 193 kts 288°
2026-04-25 14:45 51.64372 69.42273 6857 ft 193 kts 288°
2026-04-25 14:45 51.64981 69.40359 6849 ft 192 kts 287°
2026-04-25 14:45 51.65589 69.38444 6854 ft 192 kts 287°
2026-04-25 14:46 51.66196 69.36533 6850 ft 192 kts 287°
2026-04-25 14:46 51.66805 69.34611 6856 ft 194 kts 287°
2026-04-25 14:46 51.67418 69.32681 6856 ft 194 kts 287°
2026-04-25 14:46 51.68028 69.30757 6857 ft 193 kts 288°
2026-04-25 14:47 51.68637 69.28832 6858 ft 193 kts 288°
2026-04-25 14:47 51.69044 69.27549 6858 ft 193 kts 288°
2026-04-25 14:47 51.69852 69.24993 6854 ft 192 kts 287°
2026-04-25 14:47 51.70457 69.23077 6850 ft 192 kts 287°
2026-04-25 14:48 51.71063 69.21158 6845 ft 193 kts 287°
2026-04-25 14:48 51.71670 69.19235 6845 ft 193 kts 287°
2026-04-25 14:48 51.72277 69.17305 6845 ft 193 kts 287°
2026-04-25 14:48 51.72884 69.15379 6845 ft 193 kts 287°
2026-04-25 14:49 51.73492 69.13449 6845 ft 193 kts 287°
2026-04-25 14:49 51.74098 69.11520 6846 ft 193 kts 287°
2026-04-25 14:49 51.74704 69.09591 6846 ft 193 kts 287°
2026-04-25 14:49 51.75310 69.07660 6846 ft 193 kts 287°
2026-04-25 14:50 51.75915 69.05731 6846 ft 193 kts 287°
2026-04-25 14:50 51.76521 69.03797 6850 ft 193 kts 287°
2026-04-25 14:50 51.77127 69.01863 6850 ft 194 kts 287°
2026-04-25 14:50 51.77734 68.99925 6849 ft 194 kts 287°
2026-04-25 14:51 51.78338 68.97992 6846 ft 193 kts 287°
2026-04-25 14:51 51.78942 68.96060 6846 ft 193 kts 287°
2026-04-25 14:51 51.79545 68.94127 6843 ft 193 kts 287°
2026-04-25 14:51 51.80147 68.92196 6843 ft 193 kts 287°
2026-04-25 14:52 51.80751 68.90260 6843 ft 193 kts 287°
2026-04-25 14:52 51.81355 68.88320 6844 ft 194 kts 287°
2026-04-25 14:52 51.81958 68.86381 6845 ft 194 kts 287°
2026-04-25 14:52 51.82362 68.85083 6850 ft 194 kts 287°
2026-04-25 14:53 51.83170 68.82483 6842 ft 195 kts 287°
2026-04-25 14:53 51.83776 68.80532 6843 ft 194 kts 287°
2026-04-25 14:53 51.84380 68.78585 6843 ft 194 kts 287°
2026-04-25 14:53 51.84986 68.76632 6843 ft 195 kts 287°
2026-04-25 14:54 51.85590 68.74679 6842 ft 195 kts 286°
2026-04-25 14:54 51.86195 68.72724 6842 ft 195 kts 287°
2026-04-25 14:54 51.86799 68.70771 6842 ft 194 kts 287°
2026-04-25 14:54 51.87401 68.68821 6841 ft 194 kts 286°
2026-04-25 14:55 51.87804 68.67519 6843 ft 194 kts 287°
2026-04-25 14:55 51.88606 68.64917 6843 ft 194 kts 287°
2026-04-25 14:55 51.89208 68.62966 6846 ft 194 kts 287°
2026-04-25 14:55 51.89808 68.61016 6841 ft 194 kts 287°
2026-04-25 14:56 51.90409 68.59063 6844 ft 194 kts 286°
2026-04-25 14:56 51.91009 68.57112 6847 ft 194 kts 286°
2026-04-25 14:56 51.91609 68.55158 6845 ft 194 kts 286°
2026-04-25 14:56 51.92209 68.53204 6849 ft 195 kts 286°
2026-04-25 14:57 51.92813 68.51233 6844 ft 196 kts 287°
2026-04-25 14:57 51.93419 68.49255 6845 ft 196 kts 287°
2026-04-25 14:57 51.94025 68.47276 6845 ft 197 kts 287°
2026-04-25 14:57 51.94634 68.45290 6845 ft 197 kts 287°
2026-04-25 14:58 51.95239 68.43311 6848 ft 197 kts 287°
2026-04-25 14:58 51.95845 68.41329 6849 ft 196 kts 287°
2026-04-25 14:58 51.96449 68.39344 6848 ft 196 kts 286°
2026-04-25 14:58 51.97052 68.37369 6848 ft 196 kts 286°
2026-04-25 14:59 51.97625 68.35373 6847 ft 195 kts 284°
2026-04-25 14:59 51.98191 68.33373 6846 ft 196 kts 285°
2026-04-25 14:59 51.98772 68.31367 6846 ft 197 kts 285°
2026-04-25 14:59 51.99344 68.29360 6847 ft 197 kts 285°
2026-04-25 15:00 51.99915 68.27346 6846 ft 197 kts 285°
2026-04-25 15:00 52.00484 68.25332 6846 ft 196 kts 285°
2026-04-25 15:00 52.01052 68.23325 6845 ft 196 kts 285°
2026-04-25 15:00 52.01617 68.21323 6846 ft 195 kts 285°
2026-04-25 15:01 52.02181 68.19324 6846 ft 195 kts 284°
2026-04-25 15:01 52.02743 68.17327 6845 ft 195 kts 284°
2026-04-25 15:01 52.03306 68.15332 6846 ft 195 kts 284°
2026-04-25 15:01 52.03871 68.13323 6846 ft 195 kts 284°
2026-04-25 15:02 52.04434 68.11322 6845 ft 195 kts 284°
2026-04-25 15:02 52.04996 68.09320 6844 ft 195 kts 284°
2026-04-25 15:02 52.05558 68.07318 6844 ft 195 kts 284°
2026-04-25 15:02 52.06118 68.05322 6845 ft 195 kts 284°
2026-04-25 15:03 52.06683 68.03305 6842 ft 196 kts 284°
2026-04-25 15:03 52.07245 68.01300 6842 ft 196 kts 284°
2026-04-25 15:03 52.07808 67.99288 6843 ft 195 kts 284°
2026-04-25 15:03 52.08365 67.97295 6842 ft 195 kts 284°
2026-04-25 15:04 52.08923 67.95295 6844 ft 195 kts 284°
2026-04-25 15:04 52.09483 67.93290 6843 ft 195 kts 284°
2026-04-25 15:04 52.10041 67.91288 6844 ft 195 kts 284°
2026-04-25 15:04 52.10599 67.89285 6844 ft 195 kts 283°
2026-04-25 15:05 52.11156 67.87280 6839 ft 195 kts 284°
2026-04-25 15:05 52.11703 67.85319 6839 ft 195 kts 284°
2026-04-25 15:05 52.12261 67.83321 6840 ft 194 kts 285°
2026-04-25 15:06 52.13363 67.79340 6836 ft 193 kts 285°
2026-04-25 15:06 52.13910 67.77369 6836 ft 191 kts 285°
2026-04-25 15:06 52.14207 67.76297 6835 ft 190 kts 285°
2026-04-25 15:06 52.14228 67.76221 6835 ft 190 kts 285°
2026-04-25 15:07 52.14270 67.76070 6835 ft 190 kts 285°
2026-04-25 15:07 52.14313 67.75912 6838 ft 190 kts 285°
2026-04-25 15:07 52.14356 67.75759 6838 ft 190 kts 285°
2026-04-25 15:07 52.14397 67.75609 6838 ft 190 kts 285°
2026-04-25 15:08 52.14440 67.75454 6835 ft 190 kts 285°
2026-04-25 15:08 52.14483 67.75297 6835 ft 190 kts 285°
2026-04-25 15:08 52.14547 67.75067 6835 ft 189 kts 285°
2026-04-25 15:08 52.14612 67.74831 6835 ft 189 kts 285°
2026-04-25 15:09 52.14674 67.74608 6833 ft 189 kts 285°
2026-04-25 15:09 52.14741 67.74366 6833 ft 189 kts 285°
2026-04-25 15:09 52.15654 67.71062 6830 ft 188 kts 285°
2026-04-25 15:10 52.16191 67.69117 6833 ft 189 kts 285°
2026-04-25 15:10 52.16728 67.67168 6834 ft 189 kts 285°
2026-04-25 15:10 52.17806 67.63261 6834 ft 190 kts 285°
2026-04-25 15:11 52.18344 67.61302 6836 ft 190 kts 285°
2026-04-25 15:11 52.18882 67.59350 6836 ft 189 kts 285°
2026-04-25 15:11 52.19417 67.57403 6837 ft 189 kts 285°
2026-04-25 15:12 52.20490 67.53489 6837 ft 190 kts 285°
2026-04-25 15:12 52.21028 67.51528 6837 ft 190 kts 285°
2026-04-25 15:12 52.21565 67.49565 6837 ft 190 kts 285°
2026-04-25 15:12 52.21922 67.48259 6837 ft 190 kts 285°
2026-04-25 15:13 52.22636 67.45648 6838 ft 189 kts 285°
2026-04-25 15:13 52.23703 67.41744 6838 ft 188 kts 285°
2026-04-25 15:13 52.24233 67.39798 6837 ft 188 kts 285°
2026-04-25 15:14 52.24763 67.37851 6837 ft 189 kts 285°
2026-04-25 15:14 52.25295 67.35899 6834 ft 189 kts 285°
2026-04-25 15:14 52.25826 67.33945 6835 ft 188 kts 285°
2026-04-25 15:14 52.26356 67.31996 6834 ft 188 kts 285°
2026-04-25 15:15 52.26881 67.30063 6831 ft 188 kts 285°
2026-04-25 15:15 52.27415 67.28091 6840 ft 189 kts 285°
2026-04-25 15:15 52.27945 67.26137 6839 ft 189 kts 285°
2026-04-25 15:15 52.28478 67.24168 6847 ft 190 kts 285°
2026-04-25 15:16 52.29011 67.22203 6845 ft 190 kts 285°
2026-04-25 15:16 52.29544 67.20232 6846 ft 190 kts 285°
2026-04-25 15:16 52.30604 67.16307 6846 ft 189 kts 285°
2026-04-25 15:17 52.31640 67.12464 6845 ft 191 kts 285°
2026-04-25 15:17 52.32174 67.10479 6846 ft 191 kts 285°
2026-04-25 15:17 52.32708 67.08493 6846 ft 192 kts 285°
2026-04-25 15:18 52.33243 67.06502 6844 ft 192 kts 285°
2026-04-25 15:18 52.34309 67.02533 6842 ft 191 kts 285°
2026-04-25 15:18 52.34841 67.00549 6853 ft 190 kts 285°
2026-04-25 15:19 52.35369 66.98576 6853 ft 190 kts 285°
2026-04-25 15:19 52.35723 66.97252 6853 ft 191 kts 285°
2026-04-25 15:19 52.36430 66.94606 6854 ft 191 kts 285°
2026-04-25 15:19 52.36963 66.92611 6857 ft 192 kts 285°
2026-04-25 15:20 52.37495 66.90618 6856 ft 192 kts 285°
2026-04-25 15:20 52.38028 66.88620 6857 ft 192 kts 285°
2026-04-25 15:20 52.38560 66.86623 6856 ft 191 kts 285°
2026-04-25 15:20 52.39087 66.84646 6857 ft 190 kts 285°
2026-04-25 15:21 52.39614 66.82664 6854 ft 190 kts 285°
2026-04-25 15:21 52.40140 66.80682 6853 ft 190 kts 284°
2026-04-25 15:21 52.40666 66.78700 6854 ft 190 kts 284°
2026-04-25 15:21 52.41194 66.76709 6856 ft 191 kts 284°
2026-04-25 15:22 52.41722 66.74717 6855 ft 192 kts 285°
2026-04-25 15:22 52.42250 66.72715 6859 ft 191 kts 284°
2026-04-25 15:22 52.42767 66.70714 6874 ft 192 kts 285°
2026-04-25 15:22 52.43288 66.68697 6851 ft 194 kts 285°
2026-04-25 15:23 52.43815 66.66665 6849 ft 194 kts 285°
2026-04-25 15:23 52.44341 66.64634 6855 ft 194 kts 285°
2026-04-25 15:23 52.44866 66.62603 6846 ft 194 kts 285°
2026-04-25 15:23 52.45392 66.60570 6854 ft 194 kts 285°
2026-04-25 15:24 52.45917 66.58538 6858 ft 194 kts 285°
2026-04-25 15:24 52.46443 66.56499 6856 ft 195 kts 285°
2026-04-25 15:24 52.46969 66.54456 6851 ft 195 kts 285°
2026-04-25 15:24 52.47320 66.53095 6859 ft 194 kts 285°
2026-04-25 15:25 52.48018 66.50382 6855 ft 194 kts 285°
2026-04-25 15:25 52.48542 66.48347 6856 ft 194 kts 285°
2026-04-25 15:25 52.49067 66.46303 6861 ft 194 kts 285°
2026-04-25 15:25 52.49589 66.44268 6863 ft 195 kts 287°
2026-04-25 15:26 52.50112 66.42228 6860 ft 194 kts 287°
2026-04-25 15:26 52.50634 66.40190 6865 ft 194 kts 287°
2026-04-25 15:26 52.51154 66.38159 6865 ft 194 kts 287°
2026-04-25 15:26 52.51674 66.36125 6865 ft 193 kts 287°
2026-04-25 15:27 52.52193 66.34092 6864 ft 193 kts 287°
2026-04-25 15:27 52.52712 66.32063 6864 ft 193 kts 287°
2026-04-25 15:27 52.53748 66.27995 6864 ft 193 kts 287°
2026-04-25 15:28 52.54266 66.25961 6864 ft 193 kts 287°
2026-04-25 15:28 52.54783 66.23929 6864 ft 193 kts 287°
2026-04-25 15:28 52.55299 66.21896 6864 ft 193 kts 287°
2026-04-25 15:28 52.55815 66.19864 6864 ft 193 kts 287°
2026-04-25 15:29 52.56331 66.17828 6858 ft 193 kts 287°
2026-04-25 15:29 52.56847 66.15794 6854 ft 193 kts 287°
2026-04-25 15:29 52.57361 66.13762 6862 ft 193 kts 288°
2026-04-25 15:29 52.57840 66.11873 6859 ft 192 kts 288°
2026-04-25 15:30 52.58347 66.09861 6861 ft 191 kts 288°
2026-04-25 15:30 52.58855 66.07852 6863 ft 191 kts 288°
2026-04-25 15:30 52.59362 66.05842 6864 ft 191 kts 288°
2026-04-25 15:30 52.59870 66.03825 6857 ft 191 kts 288°
2026-04-25 15:31 52.60377 66.01811 6852 ft 191 kts 288°
2026-04-25 15:31 52.60882 65.99805 6858 ft 190 kts 288°
2026-04-25 15:31 52.61385 65.97805 6857 ft 190 kts 288°
2026-04-25 15:31 52.61888 65.95798 6857 ft 191 kts 288°
2026-04-25 15:32 52.62392 65.93790 6854 ft 190 kts 288°
2026-04-25 15:32 52.62895 65.91782 6856 ft 190 kts 288°
2026-04-25 15:32 52.63400 65.89773 6857 ft 191 kts 288°
2026-04-25 15:33 52.64408 65.85739 6857 ft 191 kts 288°
2026-04-25 15:33 52.64913 65.83713 6857 ft 192 kts 288°
2026-04-25 15:33 52.65424 65.81675 6860 ft 193 kts 288°
2026-04-25 15:33 52.65929 65.79645 6860 ft 193 kts 288°
2026-04-25 15:34 52.66437 65.77600 6853 ft 193 kts 288°
2026-04-25 15:34 52.66946 65.75553 6859 ft 194 kts 288°
2026-04-25 15:34 52.67457 65.73503 6869 ft 194 kts 288°
2026-04-25 15:34 52.67798 65.72132 6858 ft 194 kts 288°
2026-04-25 15:35 52.68981 65.67365 6856 ft 192 kts 288°
2026-04-25 15:35 52.69481 65.65343 6854 ft 190 kts 288°
2026-04-25 15:35 52.69978 65.63337 6850 ft 189 kts 288°
2026-04-25 15:36 52.70963 65.59352 6848 ft 187 kts 288°
2026-04-25 15:36 52.71452 65.57366 6858 ft 187 kts 289°
2026-04-25 15:36 52.71940 65.55387 6857 ft 186 kts 289°
2026-04-25 15:37 52.72428 65.53409 6855 ft 186 kts 289°
2026-04-25 15:37 52.72914 65.51433 6856 ft 186 kts 289°
2026-04-25 15:37 52.73399 65.49459 6857 ft 186 kts 289°
2026-04-25 15:37 52.73886 65.47478 6857 ft 187 kts 289°
2026-04-25 15:38 52.74372 65.45499 6854 ft 186 kts 289°
2026-04-25 15:38 52.74857 65.43521 6854 ft 186 kts 289°
2026-04-25 15:38 52.75341 65.41546 6854 ft 186 kts 288°
2026-04-25 15:38 52.75826 65.39565 6855 ft 186 kts 289°
2026-04-25 15:39 52.76309 65.37590 6854 ft 186 kts 289°
2026-04-25 15:39 52.76792 65.35612 6855 ft 186 kts 289°
2026-04-25 15:39 52.77276 65.33633 6848 ft 186 kts 289°
2026-04-25 15:39 52.77758 65.31657 6848 ft 186 kts 289°
2026-04-25 15:40 52.78239 65.29681 6850 ft 186 kts 289°
2026-04-25 15:40 52.78560 65.28365 6851 ft 186 kts 289°
2026-04-25 15:40 52.79201 65.25727 6851 ft 186 kts 289°
2026-04-25 15:40 52.79682 65.23748 6850 ft 186 kts 289°
2026-04-25 15:41 52.80163 65.21771 6856 ft 186 kts 289°
2026-04-25 15:41 52.80583 65.19766 6855 ft 184 kts 283°
2026-04-25 15:41 52.80934 65.17729 6854 ft 184 kts 283°
2026-04-25 15:41 52.81296 65.15701 6855 ft 185 kts 283°
2026-04-25 15:42 52.81657 65.13672 6855 ft 185 kts 283°
2026-04-25 15:42 52.82017 65.11636 6855 ft 185 kts 283°
2026-04-25 15:42 52.82375 65.09604 6850 ft 185 kts 283°
2026-04-25 15:42 52.82734 65.07564 6851 ft 185 kts 283°
2026-04-25 15:43 52.83092 65.05532 6851 ft 185 kts 283°
2026-04-25 15:43 52.83450 65.03497 6851 ft 185 kts 283°
2026-04-25 15:43 52.83808 65.01455 6853 ft 186 kts 283°
2026-04-25 15:43 52.84167 64.99409 6853 ft 185 kts 283°
2026-04-25 15:44 52.84526 64.97361 6863 ft 185 kts 281°
2026-04-25 15:44 52.84884 64.95313 6853 ft 186 kts 282°
2026-04-25 15:44 52.85236 64.93302 6975 ft 180 kts 281°
2026-04-25 15:44 52.85584 64.91310 6992 ft 182 kts 281°
2026-04-25 15:45 52.85935 64.89290 6992 ft 183 kts 281°
2026-04-25 15:45 52.86288 64.87269 6993 ft 184 kts 281°
2026-04-25 15:45 52.86642 64.85231 6995 ft 185 kts 281°
2026-04-25 15:45 52.86878 64.83871 6993 ft 185 kts 281°
2026-04-25 15:46 52.87351 64.81147 6996 ft 186 kts 281°
2026-04-25 15:46 52.87708 64.79098 6997 ft 186 kts 281°
2026-04-25 15:46 52.88062 64.77044 6998 ft 186 kts 281°
2026-04-25 15:46 52.88418 64.74986 6998 ft 186 kts 281°
2026-04-25 15:47 52.88773 64.72933 6996 ft 186 kts 281°
2026-04-25 15:47 52.89127 64.70877 6996 ft 186 kts 281°
2026-04-25 15:47 52.89483 64.68820 6996 ft 186 kts 281°
2026-04-25 15:47 52.89838 64.66759 6904 ft 188 kts 281°
2026-04-25 15:48 52.90187 64.64739 6651 ft 179 kts 281°
2026-04-25 15:48 52.90520 64.62798 6396 ft 173 kts 281°
2026-04-25 15:48 52.90846 64.60896 6141 ft 170 kts 281°
2026-04-25 15:48 52.91166 64.59025 5876 ft 168 kts 281°
2026-04-25 15:49 52.91483 64.57174 5618 ft 167 kts 281°
2026-04-25 15:49 52.91798 64.55335 5359 ft 166 kts 281°
2026-04-25 15:49 52.92109 64.53508 5101 ft 164 kts 281°
2026-04-25 15:49 52.92417 64.51703 4850 ft 163 kts 282°
2026-04-25 15:50 52.92722 64.49914 4597 ft 161 kts 282°
2026-04-25 15:50 52.93025 64.48140 4337 ft 160 kts 282°
2026-04-25 15:50 52.93325 64.46376 4070 ft 158 kts 282°
2026-04-25 15:50 52.93618 64.44643 3815 ft 156 kts 282°
2026-04-25 15:51 52.93912 64.42917 3550 ft 155 kts 282°
2026-04-25 15:51 52.94105 64.41781 3380 ft 153 kts 282°
2026-04-25 15:51 52.94489 64.39523 3046 ft 153 kts 283°
2026-04-25 15:51 52.94772 64.37848 3003 ft 150 kts 283°
2026-04-25 15:52 52.95053 64.36181 3003 ft 154 kts 282°
2026-04-25 15:52 52.95345 64.34441 3011 ft 159 kts 282°
2026-04-25 15:52 52.95647 64.32655 3009 ft 161 kts 283°
2026-04-25 15:52 52.95950 64.30856 3006 ft 164 kts 283°
2026-04-25 15:53 52.96260 64.29031 3005 ft 166 kts 282°
2026-04-25 15:53 52.96571 64.27173 3006 ft 168 kts 282°
2026-04-25 15:53 52.96886 64.25302 3003 ft 170 kts 282°
2026-04-25 15:53 52.97202 64.23423 3007 ft 170 kts 282°
2026-04-25 15:54 52.97517 64.21540 3010 ft 170 kts 282°
2026-04-25 15:54 52.97834 64.19657 3009 ft 169 kts 282°
2026-04-25 15:54 52.98147 64.17780 3008 ft 170 kts 282°
2026-04-25 15:54 52.98643 64.16011 3001 ft 173 kts 303°
2026-04-25 15:55 52.99419 64.14479 3006 ft 174 kts 304°
2026-04-25 15:55 53.00178 64.12920 3008 ft 174 kts 303°
2026-04-25 15:55 53.00941 64.11359 3008 ft 175 kts 303°
2026-04-25 15:55 53.01711 64.09792 3010 ft 176 kts 303°
2026-04-25 15:56 53.02486 64.08212 3002 ft 177 kts 304°
2026-04-25 15:56 53.03255 64.06644 3004 ft 175 kts 304°
2026-04-25 15:56 53.04023 64.05073 3003 ft 175 kts 304°
2026-04-25 15:56 53.04790 64.03508 3004 ft 175 kts 304°
2026-04-25 15:57 53.05554 64.01949 3003 ft 174 kts 304°
2026-04-25 15:57 53.06310 64.00398 2999 ft 173 kts 303°
2026-04-25 15:57 53.07068 63.98845 3001 ft 174 kts 303°
2026-04-25 15:57 53.07829 63.97286 3002 ft 175 kts 303°
2026-04-25 15:58 53.08595 63.95716 3003 ft 175 kts 304°
2026-04-25 15:58 53.09360 63.94147 3000 ft 175 kts 303°
2026-04-25 15:58 53.10124 63.92580 3001 ft 174 kts 303°
2026-04-25 15:58 53.10888 63.91012 3002 ft 175 kts 303°
2026-04-25 15:59 53.11648 63.89446 3003 ft 175 kts 303°
2026-04-25 15:59 53.12418 63.87870 2998 ft 175 kts 303°
2026-04-25 15:59 53.13183 63.86299 3009 ft 175 kts 303°
2026-04-25 15:59 53.13953 63.84715 2994 ft 177 kts 303°
2026-04-25 16:00 53.14723 63.83123 2998 ft 176 kts 303°
2026-04-25 16:00 53.15234 63.82065 2998 ft 177 kts 302°
2026-04-25 16:00 53.16288 63.79982 2536 ft 179 kts 305°
2026-04-25 16:00 53.17129 63.78435 2103 ft 181 kts 306°
2026-04-25 16:01 53.18181 63.77308 1841 ft 185 kts 339°
2026-04-25 16:01 53.19456 63.77210 1699 ft 183 kts 358°
2026-04-25 16:01 53.20701 63.77353 1607 ft 176 kts
2026-04-25 16:01 53.21875 63.77486 1601 ft 163 kts 340°
2026-04-25 16:02 53.22515 63.76337 1673 ft 126 kts 262°
2026-04-25 16:02 53.22051 63.75356 1772 ft 119 kts 204°
2026-04-25 16:02 53.21241 63.74907 1295 ft 127 kts 199°
2026-04-25 16:02 53.20379 63.74571 940 ft 126 kts 186°
2026-04-25 16:03 53.19491 63.74493 697 ft 131 kts 182°
2026-04-25 16:03 53.18523 63.74418 723 ft 146 kts 183°
2026-04-25 16:03 53.17510 63.74386 967 ft 146 kts 180°
2026-04-25 16:03 53.16497 63.74426 1242 ft 145 kts 175°
2026-04-25 16:04 53.15709 63.75414 1462 ft 158 kts 119°
2026-04-25 16:04 53.15487 63.77256 1508 ft 166 kts 97°
2026-04-25 16:04 53.16044 63.78915 1509 ft 174 kts 29°
2026-04-25 16:04 53.17195 63.79321 1503 ft 169 kts 351°
2026-04-25 16:05 53.18356 63.79087 1481 ft 169 kts 346°
2026-04-25 16:05 53.19505 63.78823 1525 ft 166 kts 352°
2026-04-25 16:05 53.21801 63.78806 1448 ft 161 kts 343°
2026-04-25 16:06 53.22545 63.77749 1399 ft 136 kts 276°
2026-04-25 16:06 53.22128 63.76652 1337 ft 123 kts 199°
2026-04-25 16:06 53.21466 63.75729 1106 ft 127 kts 235°
2026-04-25 16:06 53.20893 63.74776 961 ft 106 kts 200°
2026-04-25 16:07 53.20234 63.74560 815 ft 87 kts 185°
2026-04-25 16:07 53.19834 63.74520 731 ft 86 kts 182°
2026-04-25 16:07 53.19069 63.74471 628 ft 71 kts 184°
2026-04-25 16:07 53.18708 63.74443 617 ft 32 kts 183°
2026-04-25 16:08 53.18570 63.74425 618 ft 10 kts 207°
2026-04-25 16:08 53.18595 63.74439 619 ft 23 kts
2026-04-25 16:08 53.18859 63.74455 623 ft 37 kts
2026-04-25 16:08 53.19072 63.74469 624 ft 21 kts
2026-04-25 16:09 53.19153 63.74514 627 ft 12 kts 95°
2026-04-25 16:09 53.19176 63.74619 622 ft 5 kts 354°
2026-04-25 16:09 53.19182 63.74610 631 ft 0 kts 291°